Year,Month,Day,Hour,Minute,Value (Times are PST for temperature in C)
2013,07,26,00,00,18.20
2013,07,26,00,01,18.20
2013,07,26,00,02,18.20
2013,07,26,00,03,18.10
2013,07,26,00,04,18.10
2013,07,26,00,05,18.10
2013,07,26,00,06,18.10
2013,07,26,00,07,18.10
2013,07,26,00,08,18.00
2013,07,26,00,09,18.00
2013,07,26,00,10,18.00
2013,07,26,00,11,18.00
2013,07,26,00,12,17.90
2013,07,26,00,13,17.90
2013,07,26,00,14,17.90
2013,07,26,00,15,17.80
2013,07,26,00,16,17.80
2013,07,26,00,17,17.80
2013,07,26,00,18,17.80
2013,07,26,00,19,17.80
2013,07,26,00,20,17.70
2013,07,26,00,21,17.70
2013,07,26,00,22,17.70
2013,07,26,00,23,17.70
2013,07,26,00,24,17.70
2013,07,26,00,25,17.60
2013,07,26,00,26,17.60
2013,07,26,00,27,17.60
2013,07,26,00,28,17.60
2013,07,26,00,29,17.50
2013,07,26,00,30,17.50
2013,07,26,00,31,17.50
2013,07,26,00,32,17.40
2013,07,26,00,33,17.40
2013,07,26,00,34,17.40
2013,07,26,00,35,17.40
2013,07,26,00,36,17.30
2013,07,26,00,37,17.30
2013,07,26,00,38,17.30
2013,07,26,00,39,17.30
2013,07,26,00,40,17.30
2013,07,26,00,41,17.20
2013,07,26,00,42,17.20
2013,07,26,00,43,17.20
2013,07,26,00,44,17.20
2013,07,26,00,45,17.20
2013,07,26,00,46,17.10
2013,07,26,00,47,17.10
2013,07,26,00,48,17.10
2013,07,26,00,49,17.10
2013,07,26,00,50,17.10
2013,07,26,00,51,17.00
2013,07,26,00,52,17.00
2013,07,26,00,53,17.00
2013,07,26,00,54,16.90
2013,07,26,00,55,16.90
2013,07,26,00,56,16.90
2013,07,26,00,57,16.90
2013,07,26,00,58,16.90
2013,07,26,00,59,16.90
2013,07,26,01,00,16.80
2013,07,26,01,01,16.80
2013,07,26,01,02,16.80
2013,07,26,01,03,16.80
2013,07,26,01,04,16.80
2013,07,26,01,05,16.80
2013,07,26,01,06,16.70
2013,07,26,01,07,16.70
2013,07,26,01,08,16.70
2013,07,26,01,09,16.70
2013,07,26,01,10,16.70
2013,07,26,01,11,16.70
2013,07,26,01,12,16.60
2013,07,26,01,13,16.60
2013,07,26,01,14,16.60
2013,07,26,01,15,16.60
2013,07,26,01,16,16.60
2013,07,26,01,17,16.50
2013,07,26,01,18,16.50
2013,07,26,01,19,16.50
2013,07,26,01,20,16.50
2013,07,26,01,21,16.40
2013,07,26,01,22,16.40
2013,07,26,01,23,16.40
2013,07,26,01,24,16.40
2013,07,26,01,25,16.40
2013,07,26,01,26,16.40
2013,07,26,01,27,16.30
2013,07,26,01,28,16.30
2013,07,26,01,29,16.30
2013,07,26,01,30,16.30
2013,07,26,01,31,16.30
2013,07,26,01,32,16.30
2013,07,26,01,33,16.20
2013,07,26,01,34,16.20
2013,07,26,01,35,16.20
2013,07,26,01,36,16.20
2013,07,26,01,37,16.20
2013,07,26,01,38,16.20
2013,07,26,01,39,16.10
2013,07,26,01,40,16.10
2013,07,26,01,41,16.10
2013,07,26,01,42,16.10
2013,07,26,01,43,16.00
2013,07,26,01,44,16.00
2013,07,26,01,45,16.00
2013,07,26,01,46,15.90
2013,07,26,01,47,15.90
2013,07,26,01,48,15.90
2013,07,26,01,49,15.90
2013,07,26,01,50,15.80
2013,07,26,01,51,15.80
2013,07,26,01,52,15.80
2013,07,26,01,53,15.80
2013,07,26,01,54,15.80
2013,07,26,01,55,15.70
2013,07,26,01,56,15.70
2013,07,26,01,57,15.70
2013,07,26,01,58,15.70
2013,07,26,01,59,15.70
2013,07,26,02,00,15.70
2013,07,26,02,01,15.70
2013,07,26,02,02,15.60
2013,07,26,02,03,15.60
2013,07,26,02,04,15.60
2013,07,26,02,05,15.60
2013,07,26,02,06,15.60
2013,07,26,02,07,15.50
2013,07,26,02,08,15.50
2013,07,26,02,09,15.50
2013,07,26,02,10,15.40
2013,07,26,02,11,15.40
2013,07,26,02,12,15.40
2013,07,26,02,13,15.40
2013,07,26,02,14,15.30
2013,07,26,02,15,15.30
2013,07,26,02,16,15.30
2013,07,26,02,17,15.30
2013,07,26,02,18,15.30
2013,07,26,02,19,15.30
2013,07,26,02,20,15.20
2013,07,26,02,21,15.20
2013,07,26,02,22,15.20
2013,07,26,02,23,15.20
2013,07,26,02,24,15.20
2013,07,26,02,25,15.10
2013,07,26,02,26,15.10
2013,07,26,02,27,15.10
2013,07,26,02,28,15.10
2013,07,26,02,29,15.10
2013,07,26,02,30,15.10
2013,07,26,02,31,15.00
2013,07,26,02,32,15.00
2013,07,26,02,33,15.00
2013,07,26,02,34,14.90
2013,07,26,02,35,14.90
2013,07,26,02,36,14.90
2013,07,26,02,37,14.90
2013,07,26,02,38,14.80
2013,07,26,02,39,14.80
2013,07,26,02,40,14.80
2013,07,26,02,41,14.80
2013,07,26,02,42,14.80
2013,07,26,02,43,14.80
2013,07,26,02,44,14.80
2013,07,26,02,45,14.80
2013,07,26,02,46,14.70
2013,07,26,02,47,14.70
2013,07,26,02,48,14.70
2013,07,26,02,49,14.70
2013,07,26,02,50,14.70
2013,07,26,02,51,14.70
2013,07,26,02,52,14.70
2013,07,26,02,53,14.70
2013,07,26,02,54,14.70
2013,07,26,02,55,14.60
2013,07,26,02,56,14.60
2013,07,26,02,57,14.60
2013,07,26,02,58,14.60
2013,07,26,02,59,14.60
2013,07,26,03,00,14.60
2013,07,26,03,01,14.60
2013,07,26,03,02,14.60
2013,07,26,03,03,14.60
2013,07,26,03,04,14.60
2013,07,26,03,05,14.50
2013,07,26,03,06,14.50
2013,07,26,03,07,14.50
2013,07,26,03,08,14.50
2013,07,26,03,09,14.50
2013,07,26,03,10,14.50
2013,07,26,03,11,14.40
2013,07,26,03,12,14.40
2013,07,26,03,13,14.40
2013,07,26,03,14,14.40
2013,07,26,03,15,14.40
2013,07,26,03,16,14.40
2013,07,26,03,17,14.40
2013,07,26,03,18,14.30
2013,07,26,03,19,14.30
2013,07,26,03,20,14.30
2013,07,26,03,21,14.30
2013,07,26,03,22,14.30
2013,07,26,03,23,14.30
2013,07,26,03,24,14.30
2013,07,26,03,25,14.30
2013,07,26,03,26,14.20
2013,07,26,03,27,14.20
2013,07,26,03,28,14.20
2013,07,26,03,29,14.20
2013,07,26,03,30,14.20
2013,07,26,03,31,14.20
2013,07,26,03,32,14.20
2013,07,26,03,33,14.20
2013,07,26,03,34,14.10
2013,07,26,03,35,14.10
2013,07,26,03,36,14.10
2013,07,26,03,37,14.10
2013,07,26,03,38,14.10
2013,07,26,03,39,14.10
2013,07,26,03,40,14.00
2013,07,26,03,41,14.00
2013,07,26,03,42,14.00
2013,07,26,03,43,14.00
2013,07,26,03,44,13.90
2013,07,26,03,45,13.90
2013,07,26,03,46,13.90
2013,07,26,03,47,13.90
2013,07,26,03,48,13.90
2013,07,26,03,49,13.90
2013,07,26,03,50,13.90
2013,07,26,03,51,13.90
2013,07,26,03,52,13.80
2013,07,26,03,53,13.80
2013,07,26,03,54,13.80
2013,07,26,03,55,13.80
2013,07,26,03,56,13.80
2013,07,26,03,57,13.80
2013,07,26,03,58,13.80
2013,07,26,03,59,13.80
2013,07,26,04,00,13.80
2013,07,26,04,01,13.80
2013,07,26,04,02,13.80
2013,07,26,04,03,13.80
2013,07,26,04,04,13.70
2013,07,26,04,05,13.70
2013,07,26,04,06,13.70
2013,07,26,04,07,13.70
2013,07,26,04,08,13.70
2013,07,26,04,09,13.70
2013,07,26,04,10,13.70
2013,07,26,04,11,13.70
2013,07,26,04,12,13.70
2013,07,26,04,13,13.70
2013,07,26,04,14,13.70
2013,07,26,04,15,13.70
2013,07,26,04,16,13.70
2013,07,26,04,17,13.60
2013,07,26,04,18,13.60
2013,07,26,04,19,13.60
2013,07,26,04,20,13.60
2013,07,26,04,21,13.60
2013,07,26,04,22,13.60
2013,07,26,04,23,13.60
2013,07,26,04,24,13.50
2013,07,26,04,25,13.50
2013,07,26,04,26,13.50
2013,07,26,04,27,13.50
2013,07,26,04,28,13.50
2013,07,26,04,29,13.50
2013,07,26,04,30,13.50
2013,07,26,04,31,13.50
2013,07,26,04,32,13.50
2013,07,26,04,33,13.50
2013,07,26,04,34,13.50
2013,07,26,04,35,13.50
2013,07,26,04,36,13.50
2013,07,26,04,37,13.50
2013,07,26,04,38,13.40
2013,07,26,04,39,13.40
2013,07,26,04,40,13.40
2013,07,26,04,41,13.40
2013,07,26,04,42,13.40
2013,07,26,04,43,13.40
2013,07,26,04,44,13.40
2013,07,26,04,45,13.40
2013,07,26,04,46,13.30
2013,07,26,04,47,13.30
2013,07,26,04,48,13.30
2013,07,26,04,49,13.30
2013,07,26,04,50,13.30
2013,07,26,04,51,13.30
2013,07,26,04,52,13.30
2013,07,26,04,53,13.20
2013,07,26,04,54,13.20
2013,07,26,04,55,13.20
2013,07,26,04,56,13.20
2013,07,26,04,57,13.20
2013,07,26,04,58,13.20
2013,07,26,04,59,13.20
2013,07,26,05,00,13.20
2013,07,26,05,01,13.20
2013,07,26,05,02,13.20
2013,07,26,05,03,13.20
2013,07,26,05,04,13.20
2013,07,26,05,05,13.20
2013,07,26,05,06,13.10
2013,07,26,05,07,13.10
2013,07,26,05,08,13.10
2013,07,26,05,09,13.10
2013,07,26,05,10,13.10
2013,07,26,05,11,13.10
2013,07,26,05,12,13.00
2013,07,26,05,13,13.00
2013,07,26,05,14,13.00
2013,07,26,05,15,13.00
2013,07,26,05,16,13.00
2013,07,26,05,17,13.00
2013,07,26,05,18,12.90
2013,07,26,05,19,12.90
2013,07,26,05,20,12.90
2013,07,26,05,21,12.90
2013,07,26,05,22,12.90
2013,07,26,05,23,12.90
2013,07,26,05,24,12.90
2013,07,26,05,25,12.90
2013,07,26,05,26,12.90
2013,07,26,05,27,12.90
2013,07,26,05,28,12.80
2013,07,26,05,29,12.80
2013,07,26,05,30,12.80
2013,07,26,05,31,12.70
2013,07,26,05,32,12.70
2013,07,26,05,33,12.70
2013,07,26,05,34,12.70
2013,07,26,05,35,12.70
2013,07,26,05,36,12.70
2013,07,26,05,37,12.70
2013,07,26,05,38,12.70
2013,07,26,05,39,12.70
2013,07,26,05,40,12.70
2013,07,26,05,41,12.70
2013,07,26,05,42,12.70
2013,07,26,05,43,12.70
2013,07,26,05,44,12.70
2013,07,26,05,45,12.70
2013,07,26,05,46,12.60
2013,07,26,05,47,12.60
2013,07,26,05,48,12.60
2013,07,26,05,49,12.60
2013,07,26,05,50,12.60
2013,07,26,05,51,12.60
2013,07,26,05,52,12.60
2013,07,26,05,53,12.60
2013,07,26,05,54,12.60
2013,07,26,05,55,12.60
2013,07,26,05,56,12.60
2013,07,26,05,57,12.60
2013,07,26,05,58,12.60
2013,07,26,05,59,12.60
2013,07,26,06,00,12.60
2013,07,26,06,01,12.60
2013,07,26,06,02,12.60
2013,07,26,06,03,12.60
2013,07,26,06,04,12.60
2013,07,26,06,05,12.60
2013,07,26,06,06,12.60
2013,07,26,06,07,12.60
2013,07,26,06,08,12.60
2013,07,26,06,09,12.60
2013,07,26,06,10,12.60
2013,07,26,06,11,12.60
2013,07,26,06,12,12.60
2013,07,26,06,13,12.50
2013,07,26,06,14,12.50
2013,07,26,06,15,12.40
2013,07,26,06,16,12.40
2013,07,26,06,17,12.40
2013,07,26,06,18,12.30
2013,07,26,06,19,12.30
2013,07,26,06,20,12.30
2013,07,26,06,21,12.30
2013,07,26,06,22,12.30
2013,07,26,06,23,12.30
2013,07,26,06,24,12.40
2013,07,26,06,25,12.40
2013,07,26,06,26,12.40
2013,07,26,06,27,12.40
2013,07,26,06,28,12.40
2013,07,26,06,29,12.40
2013,07,26,06,30,12.40
2013,07,26,06,31,12.50
2013,07,26,06,32,12.50
2013,07,26,06,33,12.50
2013,07,26,06,34,12.60
2013,07,26,06,35,12.60
2013,07,26,06,36,12.60
2013,07,26,06,37,12.60
2013,07,26,06,38,12.60
2013,07,26,06,39,12.50
2013,07,26,06,40,12.60
2013,07,26,06,41,12.60
2013,07,26,06,42,12.50
2013,07,26,06,43,12.50
2013,07,26,06,44,12.50
2013,07,26,06,45,12.50
2013,07,26,06,46,12.50
2013,07,26,06,47,12.50
2013,07,26,06,48,12.50
2013,07,26,06,49,12.50
2013,07,26,06,50,12.50
2013,07,26,06,51,12.50
2013,07,26,06,52,12.40
2013,07,26,06,53,12.40
2013,07,26,06,54,12.40
2013,07,26,06,55,12.30
2013,07,26,06,56,12.30
2013,07,26,06,57,12.30
2013,07,26,06,58,12.30
2013,07,26,06,59,12.30
2013,07,26,07,00,12.40
2013,07,26,07,01,12.40
2013,07,26,07,02,12.40
2013,07,26,07,03,12.40
2013,07,26,07,04,12.40
2013,07,26,07,05,12.50
2013,07,26,07,06,12.50
2013,07,26,07,07,12.50
2013,07,26,07,08,12.50
2013,07,26,07,09,12.60
2013,07,26,07,10,12.60
2013,07,26,07,11,12.60
2013,07,26,07,12,12.70
2013,07,26,07,13,12.80
2013,07,26,07,14,12.80
2013,07,26,07,15,12.90
2013,07,26,07,16,12.90
2013,07,26,07,17,13.00
2013,07,26,07,18,13.10
2013,07,26,07,19,13.10
2013,07,26,07,20,13.10
2013,07,26,07,21,13.20
2013,07,26,07,22,13.20
2013,07,26,07,23,13.30
2013,07,26,07,24,13.30
2013,07,26,07,25,13.30
2013,07,26,07,26,13.30
2013,07,26,07,27,13.30
2013,07,26,07,28,13.30
2013,07,26,07,29,13.40
2013,07,26,07,30,13.40
2013,07,26,07,31,13.30
2013,07,26,07,32,13.40
2013,07,26,07,33,13.40
2013,07,26,07,34,13.40
2013,07,26,07,35,13.40
2013,07,26,07,36,13.40
2013,07,26,07,37,13.50
2013,07,26,07,38,13.50
2013,07,26,07,39,13.50
2013,07,26,07,40,13.60
2013,07,26,07,41,13.60
2013,07,26,07,42,13.60
2013,07,26,07,43,13.60
2013,07,26,07,44,13.60
2013,07,26,07,45,13.70
2013,07,26,07,46,13.70
2013,07,26,07,47,13.70
2013,07,26,07,48,13.70
2013,07,26,07,49,13.80
2013,07,26,07,50,13.80
2013,07,26,07,51,13.90
2013,07,26,07,52,14.00
2013,07,26,07,53,14.00
2013,07,26,07,54,14.10
2013,07,26,07,55,14.10
2013,07,26,07,56,14.10
2013,07,26,07,57,14.10
2013,07,26,07,58,14.10
2013,07,26,07,59,14.10
2013,07,26,08,00,14.10
2013,07,26,08,01,14.10
2013,07,26,08,02,14.10
2013,07,26,08,03,14.10
2013,07,26,08,04,14.20
2013,07,26,08,05,14.20
2013,07,26,08,06,14.20
2013,07,26,08,07,14.20
2013,07,26,08,08,14.30
2013,07,26,08,09,14.30
2013,07,26,08,10,14.30
2013,07,26,08,11,14.30
2013,07,26,08,12,14.30
2013,07,26,08,13,14.40
2013,07,26,08,14,14.40
2013,07,26,08,15,14.40
2013,07,26,08,16,14.50
2013,07,26,08,17,14.50
2013,07,26,08,18,14.60
2013,07,26,08,19,14.60
2013,07,26,08,20,14.60
2013,07,26,08,21,14.60
2013,07,26,08,22,14.60
2013,07,26,08,23,14.70
2013,07,26,08,24,14.70
2013,07,26,08,25,14.70
2013,07,26,08,26,14.70
2013,07,26,08,27,14.70
2013,07,26,08,28,14.80
2013,07,26,08,29,14.80
2013,07,26,08,30,14.80
2013,07,26,08,31,14.80
2013,07,26,08,32,14.90
2013,07,26,08,33,14.90
2013,07,26,08,34,14.90
2013,07,26,08,35,14.90
2013,07,26,08,36,14.90
2013,07,26,08,37,15.00
2013,07,26,08,38,15.00
2013,07,26,08,39,15.00
2013,07,26,08,40,15.10
2013,07,26,08,41,15.10
2013,07,26,08,42,15.10
2013,07,26,08,43,15.10
2013,07,26,08,44,15.10
2013,07,26,08,45,15.20
2013,07,26,08,46,15.20
2013,07,26,08,47,15.20
2013,07,26,08,48,15.20
2013,07,26,08,49,15.30
2013,07,26,08,50,15.30
2013,07,26,08,51,15.30
2013,07,26,08,52,15.30
2013,07,26,08,53,15.40
2013,07,26,08,54,15.40
2013,07,26,08,55,15.50
2013,07,26,08,56,15.70
2013,07,26,08,57,15.80
2013,07,26,08,58,15.80
2013,07,26,08,59,15.80
2013,07,26,09,00,15.80
2013,07,26,09,01,15.80
2013,07,26,09,02,15.80
2013,07,26,09,03,15.80
2013,07,26,09,04,15.80
2013,07,26,09,05,15.90
2013,07,26,09,06,15.90
2013,07,26,09,07,15.90
2013,07,26,09,08,15.90
2013,07,26,09,09,15.90
2013,07,26,09,10,16.00
2013,07,26,09,11,16.10
2013,07,26,09,12,16.10
2013,07,26,09,13,16.20
2013,07,26,09,14,16.20
2013,07,26,09,15,16.30
2013,07,26,09,16,16.30
2013,07,26,09,17,16.30
2013,07,26,09,18,16.30
2013,07,26,09,19,16.30
2013,07,26,09,20,16.30
2013,07,26,09,21,16.30
2013,07,26,09,22,16.20
2013,07,26,09,23,16.20
2013,07,26,09,24,16.20
2013,07,26,09,25,16.30
2013,07,26,09,26,16.40
2013,07,26,09,27,16.40
2013,07,26,09,28,16.40
2013,07,26,09,29,16.40
2013,07,26,09,30,16.50
2013,07,26,09,31,16.50
2013,07,26,09,32,16.50
2013,07,26,09,33,16.60
2013,07,26,09,34,16.60
2013,07,26,09,35,16.60
2013,07,26,09,36,16.60
2013,07,26,09,37,16.60
2013,07,26,09,38,16.70
2013,07,26,09,39,16.70
2013,07,26,09,40,16.70
2013,07,26,09,41,16.80
2013,07,26,09,42,16.80
2013,07,26,09,43,16.90
2013,07,26,09,44,17.00
2013,07,26,09,45,17.00
2013,07,26,09,46,17.10
2013,07,26,09,47,17.10
2013,07,26,09,48,17.20
2013,07,26,09,49,17.20
2013,07,26,09,50,17.30
2013,07,26,09,51,17.30
2013,07,26,09,52,17.30
2013,07,26,09,53,17.30
2013,07,26,09,54,17.40
2013,07,26,09,55,17.40
2013,07,26,09,56,17.60
2013,07,26,09,57,17.70
2013,07,26,09,58,17.70
2013,07,26,09,59,17.70
2013,07,26,10,00,17.60
2013,07,26,10,01,17.60
2013,07,26,10,02,17.60
2013,07,26,10,03,17.60
2013,07,26,10,04,17.70
2013,07,26,10,05,17.70
2013,07,26,10,06,17.70
2013,07,26,10,07,17.80
2013,07,26,10,08,17.80
2013,07,26,10,09,17.80
2013,07,26,10,10,17.80
2013,07,26,10,11,17.80
2013,07,26,10,12,17.80
2013,07,26,10,13,17.90
2013,07,26,10,14,17.90
2013,07,26,10,15,17.90
2013,07,26,10,16,17.90
2013,07,26,10,17,17.90
2013,07,26,10,18,17.90
2013,07,26,10,19,17.90
2013,07,26,10,20,17.90
2013,07,26,10,21,18.00
2013,07,26,10,22,18.10
2013,07,26,10,23,18.20
2013,07,26,10,24,18.20
2013,07,26,10,25,18.30
2013,07,26,10,26,18.30
2013,07,26,10,27,18.40
2013,07,26,10,28,18.30
2013,07,26,10,29,18.40
2013,07,26,10,30,18.40
2013,07,26,10,31,18.40
2013,07,26,10,32,18.50
2013,07,26,10,33,18.50
2013,07,26,10,34,18.50
2013,07,26,10,35,18.50
2013,07,26,10,36,18.40
2013,07,26,10,37,18.50
2013,07,26,10,38,18.50
2013,07,26,10,39,18.60
2013,07,26,10,40,18.60
2013,07,26,10,41,18.70
2013,07,26,10,42,18.70
2013,07,26,10,43,18.70
2013,07,26,10,44,18.70
2013,07,26,10,45,18.70
2013,07,26,10,46,18.70
2013,07,26,10,47,18.70
2013,07,26,10,48,18.70
2013,07,26,10,49,18.70
2013,07,26,10,50,18.80
2013,07,26,10,51,18.80
2013,07,26,10,52,18.90
2013,07,26,10,53,19.00
2013,07,26,10,54,19.00
2013,07,26,10,55,19.10
2013,07,26,10,56,19.20
2013,07,26,10,57,19.20
2013,07,26,10,58,19.20
2013,07,26,10,59,19.20
2013,07,26,11,00,19.20
2013,07,26,11,01,19.30
2013,07,26,11,02,19.30
2013,07,26,11,03,19.30
2013,07,26,11,04,19.40
2013,07,26,11,05,19.50
2013,07,26,11,06,19.50
2013,07,26,11,07,19.60
2013,07,26,11,08,19.60
2013,07,26,11,09,19.70
2013,07,26,11,10,19.70
2013,07,26,11,11,19.70
2013,07,26,11,12,19.80
2013,07,26,11,13,19.80
2013,07,26,11,14,19.80
2013,07,26,11,15,19.90
2013,07,26,11,16,19.90
2013,07,26,11,17,19.90
2013,07,26,11,18,19.90
2013,07,26,11,19,20.00
2013,07,26,11,20,20.00
2013,07,26,11,21,20.00
2013,07,26,11,22,20.10
2013,07,26,11,23,20.10
2013,07,26,11,24,20.20
2013,07,26,11,25,20.30
2013,07,26,11,26,20.40
2013,07,26,11,27,20.50
2013,07,26,11,28,20.60
2013,07,26,11,29,20.60
2013,07,26,11,30,20.60
2013,07,26,11,31,20.60
2013,07,26,11,32,20.60
2013,07,26,11,33,20.60
2013,07,26,11,34,20.60
2013,07,26,11,35,20.70
2013,07,26,11,36,20.80
2013,07,26,11,37,20.90
2013,07,26,11,38,21.00
2013,07,26,11,39,21.00
2013,07,26,11,40,21.10
2013,07,26,11,41,21.10
2013,07,26,11,42,21.20
2013,07,26,11,43,21.30
2013,07,26,11,44,21.30
2013,07,26,11,45,21.30
2013,07,26,11,46,21.30
2013,07,26,11,47,21.30
2013,07,26,11,48,21.30
2013,07,26,11,49,21.40
2013,07,26,11,50,21.40
2013,07,26,11,51,21.40
2013,07,26,11,52,21.50
2013,07,26,11,53,21.50
2013,07,26,11,54,21.60
2013,07,26,11,55,21.70
2013,07,26,11,56,21.70
2013,07,26,11,57,21.70
2013,07,26,11,58,21.70
2013,07,26,11,59,21.80
2013,07,26,12,00,21.80
2013,07,26,12,01,21.80
2013,07,26,12,02,21.80
2013,07,26,12,03,21.80
2013,07,26,12,04,21.80
2013,07,26,12,05,21.80
2013,07,26,12,06,21.90
2013,07,26,12,07,21.90
2013,07,26,12,08,22.00
2013,07,26,12,09,22.00
2013,07,26,12,10,22.10
2013,07,26,12,11,22.10
2013,07,26,12,12,22.10
2013,07,26,12,13,22.10
2013,07,26,12,14,22.10
2013,07,26,12,15,22.10
2013,07,26,12,16,22.10
2013,07,26,12,17,22.20
2013,07,26,12,18,22.30
2013,07,26,12,19,22.30
2013,07,26,12,20,22.30
2013,07,26,12,21,22.40
2013,07,26,12,22,22.40
2013,07,26,12,23,22.40
2013,07,26,12,24,22.40
2013,07,26,12,25,22.40
2013,07,26,12,26,22.50
2013,07,26,12,27,22.50
2013,07,26,12,28,22.60
2013,07,26,12,29,22.70
2013,07,26,12,30,22.80
2013,07,26,12,31,22.90
2013,07,26,12,32,23.00
2013,07,26,12,33,23.10
2013,07,26,12,34,23.20
2013,07,26,12,35,23.30
2013,07,26,12,36,23.30
2013,07,26,12,37,23.30
2013,07,26,12,38,23.30
2013,07,26,12,39,23.40
2013,07,26,12,40,23.50
2013,07,26,12,41,23.50
2013,07,26,12,42,23.50
2013,07,26,12,43,23.40
2013,07,26,12,44,23.50
2013,07,26,12,45,23.50
2013,07,26,12,46,23.50
2013,07,26,12,47,23.60
2013,07,26,12,48,23.60
2013,07,26,12,49,23.70
2013,07,26,12,50,23.70
2013,07,26,12,51,23.80
2013,07,26,12,52,23.80
2013,07,26,12,53,23.80
2013,07,26,12,54,23.80
2013,07,26,12,55,23.90
2013,07,26,12,56,23.90
2013,07,26,12,57,23.90
2013,07,26,12,58,23.90
2013,07,26,12,59,23.90
2013,07,26,13,00,23.90
2013,07,26,13,01,23.90
2013,07,26,13,02,24.00
2013,07,26,13,03,24.00
2013,07,26,13,04,24.00
2013,07,26,13,05,24.00
2013,07,26,13,06,24.00
2013,07,26,13,07,24.00
2013,07,26,13,08,24.00
2013,07,26,13,09,24.10
2013,07,26,13,10,24.10
2013,07,26,13,11,24.10
2013,07,26,13,12,24.20
2013,07,26,13,13,24.20
2013,07,26,13,14,24.30
2013,07,26,13,15,24.30
2013,07,26,13,16,24.40
2013,07,26,13,17,24.50
2013,07,26,13,18,24.50
2013,07,26,13,19,24.50
2013,07,26,13,20,24.40
2013,07,26,13,21,24.40
2013,07,26,13,22,24.40
2013,07,26,13,23,24.50
2013,07,26,13,24,24.60
2013,07,26,13,25,24.70
2013,07,26,13,26,24.80
2013,07,26,13,27,25.00
2013,07,26,13,28,25.10
2013,07,26,13,29,25.10
2013,07,26,13,30,25.20
2013,07,26,13,31,25.20
2013,07,26,13,32,25.10
2013,07,26,13,33,25.00
2013,07,26,13,34,24.80
2013,07,26,13,35,24.70
2013,07,26,13,36,24.60
2013,07,26,13,37,24.50
2013,07,26,13,38,24.50
2013,07,26,13,39,24.60
2013,07,26,13,40,24.70
2013,07,26,13,41,24.80
2013,07,26,13,42,24.80
2013,07,26,13,43,24.80
2013,07,26,13,44,24.80
2013,07,26,13,45,24.90
2013,07,26,13,46,24.90
2013,07,26,13,47,25.00
2013,07,26,13,48,25.00
2013,07,26,13,49,24.90
2013,07,26,13,50,25.00
2013,07,26,13,51,25.10
2013,07,26,13,52,25.10
2013,07,26,13,53,25.20
2013,07,26,13,54,25.30
2013,07,26,13,55,25.30
2013,07,26,13,56,25.30
2013,07,26,13,57,25.30
2013,07,26,13,58,25.30
2013,07,26,13,59,25.30
2013,07,26,14,00,25.30
2013,07,26,14,01,25.40
2013,07,26,14,02,25.50
2013,07,26,14,03,25.60
2013,07,26,14,04,25.70
2013,07,26,14,05,25.80
2013,07,26,14,06,25.80
2013,07,26,14,07,25.80
2013,07,26,14,08,25.90
2013,07,26,14,09,25.90
2013,07,26,14,10,25.80
2013,07,26,14,11,25.70
2013,07,26,14,12,25.70
2013,07,26,14,13,25.70
2013,07,26,14,14,25.80
2013,07,26,14,15,25.80
2013,07,26,14,16,25.90
2013,07,26,14,17,25.90
2013,07,26,14,18,26.00
2013,07,26,14,19,26.00
2013,07,26,14,20,26.00
2013,07,26,14,21,25.90
2013,07,26,14,22,25.80
2013,07,26,14,23,25.80
2013,07,26,14,24,25.80
2013,07,26,14,25,25.80
2013,07,26,14,26,25.80
2013,07,26,14,27,25.90
2013,07,26,14,28,26.00
2013,07,26,14,29,26.10
2013,07,26,14,30,26.20
2013,07,26,14,31,26.20
2013,07,26,14,32,26.10
2013,07,26,14,33,26.00
2013,07,26,14,34,26.00
2013,07,26,14,35,26.10
2013,07,26,14,36,26.20
2013,07,26,14,37,26.20
2013,07,26,14,38,26.30
2013,07,26,14,39,26.30
2013,07,26,14,40,26.40
2013,07,26,14,41,26.40
2013,07,26,14,42,26.40
2013,07,26,14,43,26.40
2013,07,26,14,44,26.40
2013,07,26,14,45,26.30
2013,07,26,14,46,26.40
2013,07,26,14,47,26.40
2013,07,26,14,48,26.40
2013,07,26,14,49,26.30
2013,07,26,14,50,26.20
2013,07,26,14,51,26.20
2013,07,26,14,52,26.30
2013,07,26,14,53,26.40
2013,07,26,14,54,26.50
2013,07,26,14,55,26.50
2013,07,26,14,56,26.50
2013,07,26,14,57,26.50
2013,07,26,14,58,26.60
2013,07,26,14,59,26.60
2013,07,26,15,00,26.70
2013,07,26,15,01,26.80
2013,07,26,15,02,26.80
2013,07,26,15,03,26.80
2013,07,26,15,04,26.80
2013,07,26,15,05,26.70
2013,07,26,15,06,26.70
2013,07,26,15,07,26.70
2013,07,26,15,08,26.60
2013,07,26,15,09,26.60
2013,07,26,15,10,26.60
2013,07,26,15,11,26.50
2013,07,26,15,12,26.50
2013,07,26,15,13,26.50
2013,07,26,15,14,26.50
2013,07,26,15,15,26.60
2013,07,26,15,16,26.60
2013,07,26,15,17,26.70
2013,07,26,15,18,26.60
2013,07,26,15,19,26.40
2013,07,26,15,20,26.30
2013,07,26,15,21,26.20
2013,07,26,15,22,26.10
2013,07,26,15,23,26.10
2013,07,26,15,24,26.10
2013,07,26,15,25,26.20
2013,07,26,15,26,26.30
2013,07,26,15,27,26.40
2013,07,26,15,28,26.60
2013,07,26,15,29,26.60
2013,07,26,15,30,26.70
2013,07,26,15,31,26.70
2013,07,26,15,32,26.60
2013,07,26,15,33,26.60
2013,07,26,15,34,26.50
2013,07,26,15,35,26.50
2013,07,26,15,36,26.50
2013,07,26,15,37,26.60
2013,07,26,15,38,26.60
2013,07,26,15,39,26.70
2013,07,26,15,40,26.70
2013,07,26,15,41,26.70
2013,07,26,15,42,26.70
2013,07,26,15,43,26.70
2013,07,26,15,44,26.60
2013,07,26,15,45,26.60
2013,07,26,15,46,26.60
2013,07,26,15,47,26.60
2013,07,26,15,48,26.50
2013,07,26,15,49,26.40
2013,07,26,15,50,26.50
2013,07,26,15,51,26.50
2013,07,26,15,52,26.50
2013,07,26,15,53,26.50
2013,07,26,15,54,26.40
2013,07,26,15,55,26.30
2013,07,26,15,56,26.20
2013,07,26,15,57,26.20
2013,07,26,15,58,26.10
2013,07,26,15,59,26.10
2013,07,26,16,00,26.10
2013,07,26,16,01,26.10
2013,07,26,16,02,26.10
2013,07,26,16,03,26.20
2013,07,26,16,04,26.20
2013,07,26,16,05,26.20
2013,07,26,16,06,26.30
2013,07,26,16,07,26.30
2013,07,26,16,08,26.30
2013,07,26,16,09,26.20
2013,07,26,16,10,26.10
2013,07,26,16,11,26.10
2013,07,26,16,12,26.10
2013,07,26,16,13,26.00
2013,07,26,16,14,26.00
2013,07,26,16,15,26.10
2013,07,26,16,16,26.20
2013,07,26,16,17,26.30
2013,07,26,16,18,26.30
2013,07,26,16,19,26.30
2013,07,26,16,20,26.30
2013,07,26,16,21,26.20
2013,07,26,16,22,26.20
2013,07,26,16,23,26.10
2013,07,26,16,24,26.10
2013,07,26,16,25,26.20
2013,07,26,16,26,26.20
2013,07,26,16,27,26.30
2013,07,26,16,28,26.40
2013,07,26,16,29,26.50
2013,07,26,16,30,26.60
2013,07,26,16,31,26.60
2013,07,26,16,32,26.60
2013,07,26,16,33,26.60
2013,07,26,16,34,26.70
2013,07,26,16,35,26.60
2013,07,26,16,36,26.60
2013,07,26,16,37,26.60
2013,07,26,16,38,26.50
2013,07,26,16,39,26.40
2013,07,26,16,40,26.40
2013,07,26,16,41,26.40
2013,07,26,16,42,26.30
2013,07,26,16,43,26.30
2013,07,26,16,44,26.20
2013,07,26,16,45,26.20
2013,07,26,16,46,26.20
2013,07,26,16,47,26.10
2013,07,26,16,48,26.00
2013,07,26,16,49,26.00
2013,07,26,16,50,26.10
2013,07,26,16,51,26.20
2013,07,26,16,52,26.20
2013,07,26,16,53,26.20
2013,07,26,16,54,26.10
2013,07,26,16,55,26.10
2013,07,26,16,56,26.00
2013,07,26,16,57,26.00
2013,07,26,16,58,26.00
2013,07,26,16,59,26.00
2013,07,26,17,00,26.00
2013,07,26,17,01,26.00
2013,07,26,17,02,26.00
2013,07,26,17,03,26.00
2013,07,26,17,04,26.10
2013,07,26,17,05,26.10
2013,07,26,17,06,26.20
2013,07,26,17,07,26.20
2013,07,26,17,08,26.20
2013,07,26,17,09,26.20
2013,07,26,17,10,26.20
2013,07,26,17,11,26.20
2013,07,26,17,12,26.20
2013,07,26,17,13,26.20
2013,07,26,17,14,26.10
2013,07,26,17,15,26.10
2013,07,26,17,16,26.00
2013,07,26,17,17,26.00
2013,07,26,17,18,25.90
2013,07,26,17,19,26.00